Lapse_Rate
5.9 6.1 8.4 9.0 8.7 9.0 9.3 9.3 9.3 9.3 9.4 9.4 9.4 9.0 9.4 9.3 8.5 7.2 7.0 7.2 9.3 9.5 9.6 8.5 7.1 6.9 8.0 7.4 6.6 6.2 6.5 6.5 6.5 6.5 6.5 6.1 6.5 5.3 6.3 5.2 5.4 5.3 4.2 4.5 4.6
5.6 6.6 7.6 8.3 8.7 9.1 9.3 9.3 9.3 9.3 9.3 9.2 9.1 9.5 9.5 9.3 7.7 6.5 8.7 9.4 9.4 9.0 7.5 7.2 7.0 6.6 7.5 6.9 5.8 6.4 6.5 6.5 6.5 6.5 6.5 6.1 6.2 5.7 5.5 6.1 6.2 4.2 2.5 4.1 4.1
5.9 6.0 6.7 8.6 8.9 8.6 8.6 9.0 9.0 9.2 9.3 9.3 9.3 9.3 9.4 9.2 6.8 7.9 9.7 9.0 8.5 8.2 8.6 8.1 7.4 7.3 6.1 6.6 6.1 6.3 6.5 6.5 6.6 6.1 6.2 6.5 6.2 6.6 6.4 6.5 5.3 6.1 5.4 4.4 3.8
6.0 5.7 6.2 7.8 8.0 7.4 6.4 6.3 7.1 8.9 9.3 9.3 9.3 9.5 9.4 8.0 6.5 7.9 9.4 9.5 9.0 8.1 8.6 7.6 7.4 7.0 6.5 6.5 6.4 6.5 6.4 6.6 6.6 6.9 6.2 6.5 6.7 6.5 6.6 6.2 5.7 2.9 2.7 2.7 4.0
5.6 6.0 6.6 6.0 5.8 6.7 6.4 6.0 6.6 8.2 9.3 9.3 9.3 9.4 8.2 7.1 6.1 7.1 9.2 8.7 7.5 7.9 8.1 7.8 6.9 7.0 6.5 6.5 6.4 6.5 6.5 6.7 6.8 7.0 6.7 6.7 6.6 6.5 6.5 5.4 6.6 5.5 3.5 3.1 4.7
5.5 5.4 5.4 5.3 5.2 5.5 5.9 5.8 6.5 7.2 7.9 8.0 9.4 8.7 7.4 6.5 7.1 8.7 8.2 7.2 6.8 7.1 7.3 7.9 7.6 7.7 6.9 6.5 6.5 6.4 6.3 6.6 6.7 6.7 6.6 6.5 6.6 6.8 6.7 6.8 5.5 6.6 3.3 2.7 5.4
5.0 5.3 5.2 5.0 5.2 5.4 5.3 5.4 6.3 6.8 7.2 8.3 9.1 9.0 7.3 5.9 7.9 8.0 8.2 7.8 8.0 7.4 6.5 7.0 7.3 7.5 7.0 6.5 7.1 6.6 6.5 6.5 6.5 6.5 6.5 6.6 6.5 6.5 6.6 6.7 6.0 6.5 2.8 2.9 4.2
4.7 4.8 4.9 5.0 5.2 5.3 5.0 5.2 5.7 6.2 7.4 8.3 8.4 8.5 6.1 7.5 7.8 7.5 8.1 7.6 8.7 8.5 8.1 7.7 8.0 7.8 6.7 6.7 6.4 6.5 6.5 6.5 6.5 6.5 6.5 6.2 6.5 6.5 6.7 6.8 6.2 6.6 3.1 3.6 5.1
4.4 4.5 4.8 5.2 5.3 5.5 5.3 5.3 5.6 7.0 8.4 8.1 7.2 6.6 6.3 8.3 7.7 7.1 7.7 7.6 7.5 7.5 6.8 9.1 7.2 6.8 6.9 6.5 6.5 6.5 6.5 6.5 6.5 6.5 6.5 6.5 6.5 6.5 6.2 6.6 6.8 6.8 4.8 3.7 5.7
4.2 4.2 4.5 4.9 5.2 5.9 5.9 5.8 6.4 7.1 7.2 9.0 8.4 6.6 6.9 6.8 7.3 7.3 6.9 7.5 6.9 7.6 6.8 7.3 6.2 6.5 6.5 6.5 6.5 6.5 6.5 6.5 6.5 6.5 6.5 6.5 6.5 6.5 6.6 6.7 6.6 5.9 5.5 5.2 5.9
3.7 4.0 4.0 4.6 4.9 6.0 5.8 4.6 5.1 4.5 4.4 5.7 5.9 6.9 6.9 7.1 7.5 6.6 7.7 7.2 7.4 6.7 6.5 6.8 6.5 6.5 6.5 6.5 6.5 6.5 6.5 6.5 6.5 6.5 6.5 6.5 6.5 6.5 6.4 6.6 6.5 6.3 6.2 4.6 6.0
3.2 3.6 3.9 4.2 4.6 6.0 6.4 6.3 7.6 7.2 6.7 5.0 5.6 6.1 7.1 7.4 6.7 6.6 8.1 6.5 6.4 6.5 6.5 6.5 6.5 6.5 6.5 6.5 6.5 6.5 6.5 6.5 6.5 6.5 6.5 6.5 6.5 6.5 6.5 6.5 6.3 6.1 6.4 5.4 5.9
3.1 3.5 3.5 4.0 4.4 5.2 6.3 7.1 7.7 8.3 6.5 5.9 6.4 7.4 6.8 7.2 6.4 6.6 7.2 6.7 6.5 6.5 6.5 6.5 6.5 6.5 6.5 6.5 6.5 6.5 6.5 6.5 6.5 6.5 6.5 6.5 6.5 6.5 6.5 6.3 6.3 5.6 6.4 5.3 6.0
2.9 3.4 4.1 4.0 4.5 5.0 6.2 6.9 7.9 8.2 6.5 6.5 6.5 6.8 7.1 6.8 6.5 7.4 7.2 7.1 6.5 6.5 6.5 6.5 6.5 6.5 6.5 6.5 6.5 6.5 6.5 6.5 6.5 6.5 6.5 6.5 6.5 6.5 6.5 6.5 6.5 6.6 5.7 5.7 6.1
2.7 3.4 4.2 5.2 3.6 6.0 6.7 7.0 8.1 7.4 6.5 6.5 6.5 7.9 6.8 6.4 6.2 6.7 7.4 7.1 6.5 6.5 6.5 6.5 6.5 6.5 6.5 6.5 6.5 6.5 6.5 6.5 6.5 6.5 6.5 6.5 6.5 6.5 6.5 6.5 6.5 6.5 6.6 5.3 5.2
2.8 3.4 4.4 3.8 3.6 6.4 6.5 6.5 6.0 6.5 6.5 6.5 6.5 6.5 6.5 6.4 6.4 6.8 7.1 7.0 7.3 6.5 6.5 6.5 6.3 6.5 6.5 6.5 6.5 6.5 6.5 6.5 6.5 6.5 6.5 6.5 6.5 6.5 6.5 6.5 6.5 6.4 6.6 6.5 5.8
2.7 3.4 4.1 5.1 5.1 5.6 4.7 4.4 6.5 6.5 6.5 6.5 6.5 6.5 6.5 6.5 6.5 6.5 6.5 6.5 6.5 6.5 6.5 6.5 6.5 6.5 6.5 6.5 6.5 6.5 6.5 6.5 6.5 6.5 6.5 6.5 6.5 6.5 6.5 6.5 6.5 6.5 6.6 6.4 5.4
2.5 3.9 5.0 6.8 6.4 4.7 3.0 6.0 6.5 6.5 6.5 6.5 6.5 6.5 6.5 6.5 6.5 6.5 6.5 6.5 6.5 6.5 6.5 6.5 6.5 6.5 6.5 6.5 6.5 6.5 6.5 6.5 6.5 6.5 6.5 6.5 6.5 6.5 6.5 6.3 6.3 6.6 6.6 6.3 6.5
2.5 2.3 5.0 4.2 5.6 3.1 2.6 6.5 6.5 6.5 6.5 6.5 6.5 6.5 6.5 6.5 6.5 6.5 6.5 6.5 6.5 6.5 6.5 6.5 6.5 6.5 6.5 6.5 6.5 6.5 6.5 6.5 6.5 6.5 6.5 6.5 6.5 6.5 6.5 6.5 6.5 6.3 6.0 6.4 6.7
0.4 3.1 4.6 4.8 4.7 2.5 5.4 6.5 6.5 6.4 6.5 6.5 6.5 6.5 6.5 6.5 6.5 6.5 6.5 6.5 6.5 6.5 6.0 6.5 6.5 6.5 6.5 6.4 6.5 6.5 6.5 6.5 6.5 6.5 6.5 6.5 6.5 6.5 6.5 6.5 6.5 6.5 6.3 5.7 6.6
1.3 2.9 5.2 3.8 2.5 2.1 6.5 6.5 6.5 6.6 6.3 6.5 6.5 6.5 6.5 6.5 6.5 6.5 6.5 6.5 6.5 6.5 6.4 6.5 6.5 6.5 6.5 6.5 6.5 6.5 6.5 6.5 6.5 6.5 6.5 6.5 6.5 6.5 6.5 6.5 6.5 6.5 6.0 6.0 6.7
2.2 6.0 4.8 2.7 3.6 5.1 6.5 6.5 6.8 6.3 6.3 6.5 6.4 6.5 6.5 6.5 6.5 6.5 6.5 6.5 6.6 6.4 6.5 6.5 6.5 6.5 6.5 6.5 6.5 6.5 6.5 6.5 6.5 6.5 6.5 6.5 6.5 6.5 6.5 6.5 6.4 5.9 5.7 6.1 6.3
2.8 3.6 4.3 2.7 6.5 6.5 6.1 6.5 6.4 6.5 6.5 6.5 6.5 6.5 6.5 6.5 6.5 6.5 6.5 6.4 6.6 6.5 6.5 6.5 6.5 6.5 6.5 6.5 6.5 6.5 6.5 6.5 6.5 6.5 6.5 6.5 6.5 6.5 6.5 6.5 5.7 5.8 4.0 6.5 5.9
2.4 6.5 1.5 2.1 1.7 5.8 6.5 6.5 6.5 6.2 6.5 6.6 6.5 6.5 6.5 6.5 6.5 6.5 6.5 6.5 6.6 6.6 7.0 6.3 6.5 6.5 6.5 6.5 6.5 6.5 6.5 6.5 6.5 6.5 6.5 6.5 6.5 6.5 6.5 6.5 6.4 5.5 3.8 4.3 6.4
2.0 4.1 4.8 6.5 5.0 4.6 5.9 6.5 6.5 6.5 6.4 6.1 6.5 6.5 6.5 6.5 6.5 6.5 6.5 6.5 6.5 6.8 6.4 6.5 6.5 6.5 6.5 6.5 6.5 6.5 6.5 6.5 6.5 6.5 6.5 6.5 6.5 6.5 6.5 6.5 6.2 5.8 4.9 5.2 5.3
2.7 2.6 2.9 2.8 5.1 5.2 6.5 6.5 6.5 6.5 6.5 6.5 6.5 6.5 6.5 6.5 6.5 6.5 6.5 6.5 6.5 6.5 6.5 6.5 6.5 6.5 6.5 6.5 6.5 6.5 6.5 6.5 6.5 6.5 6.5 6.5 6.5 6.5 6.2 6.5 6.5 6.5 6.3 6.2 5.5
4.0 5.3 5.0 5.4 4.3 6.5 6.5 6.5 6.5 5.7 5.8 6.4 6.5 6.5 6.5 6.5 6.5 6.5 6.5 6.5 6.5 6.5 6.5 6.5 6.5 6.5 6.5 6.5 6.5 6.5 6.5 6.5 6.5 6.5 6.5 6.5 6.5 6.5 6.5 6.5 6.6 6.8 5.9 6.4 5.7
Wind_Speed
20 21 20 21 22 23 24 25 25 25 25 24 23 23 24 24 22 14 16 14 17 12 13 9 11 10 8 5 7 3 7 11 19 21 4 5 6 6 1 4 4 3 7 11 11
20 20 23 23 23 24 24 25 25 24 25 24 23 23 23 21 13 15 9 10 1 8 6 7 12 11 5 5 5 8 9 9 5 12 5 8 3 7 1 3 5 8 15 12 9
20 22 22 22 23 25 25 25 25 25 25 24 23 22 20 16 6 4 9 7 4 9 9 11 6 9 6 6 4 5 11 12 15 9 4 13 5 9 3 2 5 9 15 16 14
20 21 23 23 24 25 27 27 26 26 25 24 21 21 15 3 3 3 16 6 9 3 7 14 5 7 6 11 9 10 6 11 12 7 4 3 2 7 4 3 2 9 10 6 14
20 22 23 25 26 27 27 28 28 27 25 22 20 14 5 3 7 14 8 3 5 2 1 6 4 5 8 6 9 14 8 11 9 18 12 8 4 7 9 9 12 7 12 12 13
22 23 24 24 26 28 29 30 30 27 23 21 12 10 2 4 6 9 5 4 5 3 2 4 4 8 7 5 6 4 10 14 14 13 7 14 8 5 10 5 10 9 14 14 15
22 23 25 25 27 29 31 32 30 27 23 17 9 3 4 10 4 8 6 5 4 5 5 5 4 6 7 6 10 6 8 10 10 12 7 13 10 13 7 7 15 15 14 12 17
22 23 24 25 27 29 32 32 31 30 24 14 8 4 5 7 2 7 4 7 2 6 4 9 5 4 1 8 6 4 1 7 1 7 11 14 18 18 16 6 13 9 8 12 15
22 24 25 26 27 28 29 35 33 24 12 13 4 4 6 2 5 7 2 4 5 5 7 2 4 1 3 1 4 4 4 8 7 9 4 10 3 7 14 13 13 5 9 10 14
22 24 25 27 27 27 27 33 26 7 11 3 4 1 3 8 6 10 5 5 5 1 5 2 3 0 1 4 8 5 9 5 8 5 10 9 8 4 11 16 18 5 6 7 16
23 25 27 28 27 25 16 4 6 6 7 4 10 5 10 7 5 6 3 5 2 2 3 5 2 4 10 10 5 8 9 7 5 9 8 13 14 10 11 13 15 6 1 7 10
24 26 28 29 26 22 5 4 4 5 8 7 10 8 7 1 4 8 2 4 3 5 4 2 6 11 9 11 7 10 13 12 10 13 9 10 13 14 13 14 19 11 4 4 5
24 27 29 29 23 6 6 4 5 1 3 8 4 2 7 1 5 5 4 4 4 4 6 4 8 8 4 9 5 9 13 13 11 12 6 3 7 11 6 4 8 10 9 5 5
25 28 26 26 5 6 3 6 9 1 3 6 3 3 6 8 1 5 3 2 5 4 7 6 5 5 7 4 8 4 5 9 14 8 3 1 3 8 11 11 13 13 14 10 3
26 27 23 12 3 3 6 13 6 1 5 9 6 5 14 4 6 4 1 3 3 5 3 5 7 6 4 5 10 5 5 3 4 4 4 2 2 6 13 13 13 13 15 16 11
27 25 17 5 2 3 13 8 3 4 3 7 7 11 12 8 6 7 6 5 3 5 3 14 6 4 5 7 4 4 1 4 2 2 4 4 6 4 10 20 13 12 12 14 13
28 20 9 7 4 14 10 3 4 6 8 9 9 14 10 10 9 11 4 5 3 6 9 8 2 1 7 3 1 5 4 0 2 3 2 3 3 10 4 14 15 18 16 14 14
28 19 4 1 16 10 3 5 9 4 5 7 8 12 7 16 7 13 7 3 6 4 2 4 7 6 3 5 5 5 4 3 5 4 3 6 3 6 9 9 11 14 15 15 16
19 3 3 6 12 3 5 6 5 4 8 7 10 6 6 10 6 8 6 2 6 5 4 5 5 3 9 5 5 4 3 2 3 3 3 4 3 8 2 3 9 11 12 17 20
2 3 3 20 9 4 5 3 3 5 6 5 5 4 5 9 8 6 4 2 3 6 2 3 7 3 6 3 6 1 5 2 2 2 2 2 3 2 2 7 10 14 15 13 18
3 4 7 22 5 5 3 2 3 6 8 3 3 4 5 5 3 5 5 5 6 8 7 3 4 6 2 2 6 4 2 1 3 3 2 2 1 2 3 5 5 10 13 15 19
2 4 7 5 5 2 3 7 6 5 6 4 5 5 5 6 4 3 3 4 10 15 4 3 3 5 6 7 7 5 5 3 3 1 0 2 3 5 5 6 8 6 13 17 21
2 1 5 6 4 4 6 6 4 7 6 5 4 4 4 5 5 4 6 8 13 12 1 6 3 5 4 2 4 4 2 4 3 2 2 2 1 7 8 9 10 10 7 15 17
3 3 4 4 1 3 3 5 7 8 4 8 4 5 9 5 0 9 9 8 15 11 10 4 3 4 3 5 1 5 3 2 4 1 3 0 1 12 12 10 11 12 9 6 12
3 1 4 3 4 3 3 3 5 8 3 6 5 10 6 4 7 3 7 11 9 4 6 3 4 2 10 17 15 11 4 5 5 1 2 4 5 10 10 10 10 12 12 10 6
3 3 3 1 3 4 5 4 5 5 3 5 7 10 4 4 6 13 10 1 7 5 6 3 4 5 5 10 4 3 6 6 7 6 12 9 9 6 6 12 16 14 14 13 9
2 3 3 4 3 4 3 4 5 5 5 5 4 5 6 6 12 17 14 13 13 8 3 3 2 4 5 5 2 6 9 5 9 13 4 5 4 7 12 14 14 13 14 14 10
Wind_Direction
351 349 345 341 342 339 337 334 331 330 327 324 317 321 318 323 322 303 287 254 263 299 324 305 280 286 273 240 207 170 228 227 224 230 220 306 204 262 155 91 36 82 125 152 140
348 344 349 344 337 336 332 328 327 325 322 319 318 321 322 324 313 296 295 240 158 349 340 298 265 258 252 218 198 204 224 228 230 236 211 251 306 205 39 85 30 89 110 114 113
346 347 345 343 341 336 331 326 325 323 321 320 319 321 320 328 325 211 45 83 70 354 334 306 244 220 239 230 205 199 238 204 259 259 258 268 310 339 125 251 162 158 146 139 125
346 345 343 342 337 334 330 326 324 322 319 318 319 315 324 309 303 272 316 5 349 357 17 340 300 237 244 231 231 243 230 243 267 287 220 286 357 295 273 218 313 165 154 152 145
346 344 342 339 333 330 329 324 322 319 318 317 314 315 325 278 252 267 317 78 90 40 40 2 318 289 257 268 259 240 241 251 231 256 243 188 238 194 270 277 330 165 163 170 167
347 345 340 336 333 328 328 324 321 320 322 315 314 302 275 263 236 278 6 165 165 127 80 101 351 331 287 259 281 313 225 253 263 271 254 253 231 163 250 346 326 251 174 166 172
345 342 340 337 334 332 327 323 321 318 314 315 326 287 275 257 262 322 317 276 180 191 174 175 162 352 343 303 346 287 278 298 273 256 232 244 268 216 249 360 312 322 167 160 170
347 343 340 338 336 332 326 321 319 313 307 299 283 264 253 263 274 330 355 339 30 287 235 152 148 175 216 315 327 332 237 238 214 253 241 166 243 237 218 180 269 308 226 163 165
344 341 339 338 334 331 328 321 316 311 312 285 272 183 268 336 360 297 278 265 289 54 37 54 86 349 180 84 333 247 260 221 271 231 195 176 240 211 197 165 243 299 329 174 152
343 340 337 335 334 331 334 321 323 350 332 183 254 141 324 324 330 307 283 253 225 241 86 102 28 296 224 174 207 210 223 253 219 230 218 176 209 202 175 173 246 245 299 350 170
343 340 335 333 332 330 341 3 13 351 28 284 284 259 274 298 290 292 272 331 359 142 254 155 201 216 223 218 235 300 297 302 302 249 221 215 201 207 176 175 195 222 345 10 204
342 338 334 331 329 325 356 47 49 250 318 292 260 249 272 260 298 304 119 26 343 306 313 166 234 239 230 217 207 232 257 269 283 270 247 233 206 198 177 194 193 205 6 343 217
343 339 335 331 325 355 93 51 341 309 284 295 253 268 283 233 271 328 43 2 315 322 318 236 254 299 285 269 201 243 223 248 264 327 284 265 236 188 203 141 159 163 200 152 345
344 340 339 337 54 329 60 345 341 42 357 321 327 285 325 315 55 72 34 43 346 327 323 270 288 274 262 186 200 252 225 244 251 271 237 96 264 204 188 194 181 169 177 212 130
343 339 340 340 264 14 305 338 338 11 57 323 356 325 324 337 306 5 4 54 323 306 317 268 317 359 351 218 173 200 89 48 298 212 275 221 102 272 186 206 195 191 182 195 148
340 337 340 350 4 303 334 331 44 42 300 357 327 339 341 347 9 21 38 31 282 301 242 261 251 283 224 324 265 133 68 55 64 190 250 192 150 272 196 204 197 192 169 178 156
335 333 324 315 315 325 336 44 38 82 331 343 328 329 333 353 359 1 37 20 39 8 348 316 279 249 197 288 131 92 109 156 207 167 165 245 97 249 311 200 198 187 177 176 153
331 324 321 351 339 352 37 51 63 301 6 314 320 322 25 14 343 346 10 16 44 38 352 8 332 8 343 201 175 164 165 167 174 167 152 120 229 257 230 225 216 191 163 159 166
334 359 36 318 350 53 63 46 185 356 345 319 325 14 341 4 337 8 354 18 47 26 40 328 282 255 286 205 158 243 186 135 84 288 85 207 286 304 281 172 180 178 169 178 175
1 13 1 328 346 58 65 98 22 4 331 358 11 14 336 336 16 21 349 5 357 44 164 270 289 19 334 249 215 230 178 71 8 81 164 274 173 164 237 237 180 190 182 174 173
42 46 320 336 49 46 102 248 350 347 15 331 301 309 349 344 306 313 272 316 44 330 318 204 252 295 303 250 170 102 226 357 122 132 126 117 217 1 319 341 286 198 179 160 172
27 45 314 10 46 34 19 319 349 341 347 342 337 11 12 353 313 305 302 259 31 0 340 322 266 277 251 301 298 154 161 145 118 226 66 62 302 328 4 342 25 73 176 158 162
71 327 331 58 67 339 329 353 333 15 337 15 306 13 6 22 345 291 328 315 1 344 345 330 313 315 349 147 351 56 184 149 75 21 83 298 217 359 17 27 27 33 41 156 144
74 32 338 35 111 117 22 334 339 343 339 340 301 19 6 329 80 293 292 309 334 327 26 2 267 248 264 288 212 289 329 188 158 142 133 249 48 11 12 23 25 28 27 78 144
43 242 178 343 340 53 79 333 358 353 0 326 343 9 351 307 314 247 333 329 305 333 12 92 278 241 267 272 261 248 198 165 154 351 140 131 61 23 13 15 11 39 36 48 53
94 65 355 249 314 58 358 303 319 341 279 306 330 316 300 235 235 294 316 15 250 317 352 338 280 318 294 358 163 182 175 118 64 82 96 89 76 27 13 26 26 31 36 36 19
344 19 101 287 346 69 253 254 296 339 293 285 316 318 289 263 286 278 267 256 248 276 306 276 281 341 275 342 304 54 343 107 87 46 353 67 17 42 36 31 14 10 38 23 359